Regional Weather Roundup
Issued by NWS Northern Indiana

Home | Current Version | Previous Version | Text Only | Print | Product List | Glossary On
Versions: 1 2 3 4 5 6 7 8 9 10 11 12 13 14 15 16 17 18 19 20 21 22 23 24 25 26 27 28 29 30 31 32 33 34 35 36 37 38 39 40 41 42 43 44 45 46 47 48 49 50
000
ASUS43 KIWX 250510
RWRIWX

KIWX WEATHER ROUNDUP
NATIONAL WEATHER SERVICE NORTHERN INDIANA
100 AM EDT SAT OCT 25 2014

NOTE: "FAIR" INDICATES FEW OR NO CLOUDS BELOW 12,000 FEET WITH NO
SIGNIFICANT WEATHER AND/OR OBSTRUCTIONS TO VISIBILITY.

* THESE STATIONS ARE NOT UNDER NWS QUALITY CONTROL. THEY ALSO MAY NOT
  REPORT WEATHER SUCH AS PRECIPITATION OR FOG.

INZ001>027-250600-
NORTHERN INDIANA

CITY           SKY/WX    TMP DP  RH WIND       PRES   REMARKS
GARY*          CLOUDY    60  50  69 SW6       29.94F
VALPARAISO     CLOUDY    55  48  77 SW7       29.96S
MICHIGAN CITY* CLOUDY    55  50  82 CALM      29.96R
LAPORTE*       LGT RAIN  55  50  84 W5        29.97R
KNOX*          MOCLDY    52  48  84 SW3       29.95S
SOUTH BEND     CLOUDY    53  47  79 SW7       29.96F
GOSHEN         PTCLDY    50  48  93 S5        29.95F
MONTICELLO*    MOCLDY    53  50  92 S5        29.96F
LOGANSPORT*    MOCLDY    50  46  87 S6        29.97F
ROCHESTER*     MOCLDY    55  52  88 S3        29.96F
WARSAW*        MOCLDY    52  50  93 CALM      29.96F
ANGOLA*        MOCLDY    45  43  93 CALM      29.96F VSB 3/4
FORT WAYNE     MOCLDY    48  46  93 SW6       29.98F
HUNTINGTON*    MOCLDY   N/A N/A N/A S3        29.97F
PERU/GRISSOM   MOCLDY    53  53 100 S7        29.97F
MARION*        PTCLDY    49  47  90 S8        30.00F

$$
INZ028>050-250600-
CENTRAL INDIANA

CITY           SKY/WX    TMP DP  RH WIND       PRES   REMARKS
LAFAYETTE      PTCLDY    53  51  93 S3        29.96F
KOKOMO*        MOCLDY    54  48  82 S6        29.99F
MUNCIE*        PTCLDY    52  48  86 SW5       30.01S
INDIANAPOLIS   MOCLDY    50  48  93 SW5       30.01F

$$
MIZ043>046-050>051-056>058-064>065-071>073-077>080-250600-
SOUTHWEST LOWER MICHIGAN

CITY           SKY/WX    TMP DP  RH WIND       PRES   REMARKS
BATTLE CREEK   PTCLDY    46  42  86 S3        29.94F
BENTON HARBOR  CLOUDY    52  49  89 S6        29.93F
COLDWATER*     PTCLDY    45  44  97 CALM      29.95F FOG
HILLSDALE*     PTCLDY    46  46 100 CALM      29.95F FOG
HOLLAND        MOCLDY    51  47  86 CALM      29.93S
GRAND RAPIDS   MOCLDY    45  43  93 CALM      29.92F FOG
KALAMAZOO      PTCLDY    45  43  93 CALM      29.94S FOG
STURGIS*         N/A     46  45  93 CALM      29.95S
THREE RIVERS*  FAIR      47  46  96 CALM      29.95S FOG

$$
OHZ001>008-015>018-024>025-250600-
NORTHWEST OHIO

CITY           SKY/WX    TMP DP  RH WIND       PRES   REMARKS
WAUSEON*       FAIR      45  45 100 CALM      29.96F FOG
DEFIANCE       MOCLDY    49  46  90 SW6       29.97F FOG
FINDLAY        PTCLDY    47  42  83 S6        29.97F
TOLEDO EXPRESS PTCLDY    46  44  93 CALM      29.96F FOG
TOLEDO METCALF PTCLDY    47  42  83 S5        29.97F
LIMA           PTCLDY    53  45  74 SW6       29.99F

$$
AND FOR LAKE MICHIGAN COASTAL AND OPEN LAKE BUOY OBSERVATIONS

STATION/POSITION TEMP    WIND        PRES    VSBY  WAVE
                 AIR SEA DIR/SP/G                  HT/PER
                 (F)     (DEG/KT/KT) (MB)    (MI)  (FT/S)
CALUMET HARBOR    61     210/  9/ 10 1012.4F
MICHIGAN CITY     57     180/  7/  8   N/A
SAINT JOSEPH      58                 1014.6R
SOUTH LAKE BUOY   56 54  190/ 10/ 10 1013.0F         1/ 2

$$
&&



USA.gov is the U.S. government's official web portal to all federal, state and local government web resources and services.